User: anonymous   Login
Location: Cahas Mountain Overlook
(37.0833°N, 80.1000°W)
Time: 05:43:57
(UTC-04:00)
Language:

KKS-1 - Orbit

View from above orbital plane
View from above orbital plane
View from above satellite
View from above satellite

Ground track
Ground track

The orbit data is extracted from the following two-line orbital elements,

1 33499U 09002H   24110.81704543  .00006078  00000-0  84043-3 0  9992
2 33499  98.1444  11.7873 0007735 327.9286  32.1452 14.78430472819494
Epoch (UTC): 19 April 2024 19:36:32
Eccentricity: 0.0007735
inclination: 98.1444°
perigee height: 629 km
apogee height: 640 km
right ascension of ascending node: 11.7873°
argument of perigee: 327.9286°
revolutions per day: 14.78430472
mean anomaly at epoch: 32.1452°
orbit number at epoch: 81949

The dashed part of the orbit path shows where the satellite is in the earth's shadow,  

DLR